DELTA 1 DEB, 21371

Orbit data source: Space-Track

DELTA 1 DEB, 21371 is space debris in SSO originally from a launch on Thu, 12 Jun 1975 UTC launched from the Air Force Western Test Range (AFWTR). Debris objects in space refer to the collection of defunct objects orbiting the Earth. Examples of debris include non-operational satellites, rocket bodies, and fragments generated from explosions, collisions, or faulty payload assembly.

Loading next visibility...
Identifier
21371, 1975-052CR
Orbit
SSO
Country
Flag of USUS
Related business
Manufacturer
Unknown
Mission
Spacecraft
Bus & Motor
Unknown
Mass
Unknown
Launch date (UTC)
1975-06-12 (51 years ago)
Launch vehicle
Unknown
Launch site
Air Force Western Test Range (AFWTR)
Object type
Payload
Rocket body
Debris
Shape & HBR
Unknown shape, 0.1 m
Radar Cross Section
Medium (>0.1 m² and <1 m²)

Expand to show TLE details & history
Last TLE update: 2 days ago

TLE from 2 days ago
0 DELTA 1 DEB
1 21371U 75052CR  26171.46220160 -.00000046  00000-0 -17596-4 0  9995
2 21371  99.7744 240.4178 0153445 104.2941 276.1002 13.14311682682414
Epoch: 2026-06-20T11:05Z
TLE epoch observation values (Epoch: 2026-06-20T11:05:34.218Z)
Latitude
18.35771°
Longitude
162.08824°
Altitude
1,198.139 km
Speed
7.261 km/s
True Right ascension
15h 48m 37s
True Declination
18° 15' 40"
Sunlit
Object was in full shadow at epoch
Visualization orbit readout
Latitude
Unknown
Longitude
Unknown
Altitude
Unknown
Speed
Unknown
Apparent Right ascension
Unknown
Apparent Declination
Unknown
Sunlit
N/A
Visualization observer readout
Local Sidereal Time
17:32:51
Azimuth
Unknown
Elevation
Unknown
Doppler factor
Unknown
Orbital elements
Apogee altitude
1,320.22 km
Perigee altitude
1,087.535 km
Semi-major axis
7,582.015 km
Eccentricity
0.01534
Inclination
99.7744°
RAAN
240.4178°
Arg. of periapsis
104.2941°
True anomaly
274.34851°
Mean anomaly
276.1002°
Eccentric anomaly
275.22468°
Mean motion
3.2875 °/min
Orbital period
109.51 mins
BSTAR
-0.000017596
Loading maneuver chart data...
Computing Atmospheric mass density...
Loading historical data...
Loading historical data...
Loading historical data...
Loading historical data...
Loading historical data...
Loading historical data...
Loading historical data...

Documentation

Showing up to 5 results
|